Theta_e
342 342 343 344 346 346 348 349 349 348 348 349 349 349 350 350 350 349 348 349 349 344 343 342 342 341 345 342 345 346 345 345 344 344 345 345 346 346 346 345 344 343 341 341 339 339 339 340 340 341 342 344 343 334 334 331 333 333 332 333 333 333
344 345 344 345 346 347 347 348 345 345 345 346 348 348 347 347 350 344 349 348 344 343 340 341 343 345 343 343 344 346 345 345 345 345 345 345 345 347 346 345 344 343 342 340 340 332 335 339 340 340 341 343 337 332 334 332 331 331 331 331 333 335
343 344 344 344 345 346 344 344 344 344 346 348 347 347 344 345 343 345 345 345 342 337 337 337 339 345 346 345 345 346 345 345 345 346 346 345 346 346 347 345 344 343 342 341 335 331 329 328 328 338 340 336 331 333 335 331 330 329 329 331 330 337
342 342 342 343 344 343 342 342 342 343 343 343 343 344 341 340 339 340 340 339 338 335 337 336 345 346 347 343 344 345 345 345 346 345 346 345 346 346 346 346 344 344 343 341 333 333 331 326 325 326 328 328 330 334 333 330 329 329 330 333 331 336
342 342 342 343 343 342 344 343 343 342 341 340 339 338 338 340 339 341 339 339 339 336 336 337 338 341 341 342 340 340 338 337 338 339 345 338 339 343 344 342 340 341 337 337 335 332 332 328 327 328 329 329 332 334 331 330 329 329 329 330 332 336
343 342 341 340 342 345 344 341 340 339 338 340 339 338 338 339 339 337 339 338 339 337 337 335 337 340 340 340 339 337 337 335 335 336 342 339 339 340 341 340 339 339 337 336 334 333 333 333 327 328 329 331 333 333 330 329 329 328 329 329 333 335
341 341 341 342 342 342 340 341 341 338 336 337 339 337 337 338 338 338 339 340 336 335 336 335 337 338 338 339 339 339 337 336 335 333 335 336 335 339 341 340 338 337 336 335 335 334 335 335 331 330 331 332 332 333 331 329 329 329 328 330 334 336
340 339 340 341 340 340 341 342 340 342 337 340 340 337 335 337 336 339 339 339 340 338 338 335 336 337 337 338 338 337 338 339 338 336 336 332 331 335 340 340 338 337 336 334 334 334 335 336 333 334 333 330 330 332 331 330 329 329 329 329 331 335
341 341 341 341 340 340 341 342 340 337 336 341 338 337 337 338 338 339 338 337 342 338 339 338 336 337 337 336 337 338 337 336 338 338 337 334 333 331 335 337 336 337 336 334 333 334 335 333 331 332 331 330 331 332 332 331 329 329 329 328 329 333
341 341 340 340 340 341 341 341 341 340 339 341 337 337 338 337 338 338 337 338 339 337 337 336 336 337 336 336 335 336 336 337 337 337 337 336 335 334 334 333 334 335 335 334 335 335 334 334 333 331 331 330 332 332 331 331 330 329 329 328 329 333
342 343 340 340 340 341 341 340 341 342 342 338 338 338 337 337 336 334 337 338 339 338 337 336 336 336 336 336 335 335 335 336 337 337 336 335 335 335 334 332 332 333 334 331 331 332 334 332 332 331 330 330 331 330 331 331 330 329 328 328 328 330
341 342 342 342 342 340 340 341 341 340 340 339 339 338 337 338 339 336 336 336 336 337 337 335 335 334 335 335 335 335 336 336 337 336 336 336 336 335 335 335 334 334 335 334 332 332 333 332 332 331 329 331 331 330 331 330 329 329 329 328 328 329
341 341 338 338 339 339 342 342 341 340 340 341 337 337 336 336 336 335 335 335 335 337 337 336 335 335 337 336 336 336 336 337 338 337 336 336 337 336 335 335 335 335 333 331 332 331 333 333 331 331 330 330 330 330 332 332 330 329 328 328 328 328
340 340 339 339 339 338 340 341 341 341 341 339 338 338 338 338 338 336 335 334 336 338 338 338 337 336 336 336 336 336 336 336 337 335 336 336 336 336 335 334 334 333 334 331 329 331 330 329 332 332 330 329 330 331 331 332 332 328 328 327 328 328
339 337 339 338 337 337 340 341 341 341 339 339 339 338 337 336 336 336 338 336 338 338 339 338 337 337 336 335 336 335 335 335 336 335 334 335 336 335 335 334 333 331 330 330 330 329 330 330 331 332 330 332 331 333 333 332 333 333 327 327 328 328
338 337 335 337 338 338 338 338 337 343 339 339 339 337 337 336 335 337 340 339 340 339 339 338 338 338 336 336 335 335 334 335 336 335 334 334 335 334 332 333 333 332 329 329 331 330 331 330 331 331 331 333 335 332 332 333 334 333 330 329 328 328
337 337 336 335 337 338 338 335 335 335 336 337 337 338 337 336 335 336 336 337 337 339 339 338 339 339 337 336 335 335 335 335 336 334 333 333 334 333 330 332 332 332 330 328 328 329 331 330 331 332 332 331 331 331 329 330 331 331 332 332 331 329
338 338 337 337 337 338 339 337 336 336 339 338 336 336 336 335 335 335 336 336 337 338 338 338 338 338 337 337 335 335 334 336 337 335 334 333 333 333 333 332 331 331 330 329 328 328 329 329 330 332 331 330 329 329 330 331 331 332 331 332 332 332
338 339 338 338 340 339 339 338 337 337 337 335 333 335 335 334 335 335 335 336 336 337 339 339 339 339 337 337 336 335 335 335 336 335 334 334 333 332 332 330 330 330 329 329 328 328 329 329 330 329 328 330 329 327 330 332 331 331 330 332 333 334
337 338 338 337 337 336 336 336 334 334 334 334 332 333 334 334 334 334 335 335 336 336 337 337 336 336 336 337 335 335 335 335 334 334 334 333 333 332 331 330 329 329 327 328 332 329 328 329 327 326 325 325 330 329 331 330 332 332 330 331 333 333
336 336 334 334 334 333 330 332 333 333 333 333 332 334 334 334 334 333 333 334 335 335 334 333 334 334 334 337 336 333 334 334 335 335 334 334 333 333 333 331 329 328 327 326 328 328 328 328 326 323 324 326 325 328 331 331 330 330 330 330 333 332
337 337 336 337 335 336 333 334 331 331 331 332 331 332 331 333 334 334 334 334 333 332 332 333 334 333 335 335 334 333 333 334 335 334 334 335 334 335 333 332 331 328 327 327 326 328 328 329 324 323 320 320 322 324 327 329 329 331 331 330 331 330
336 336 335 337 335 333 335 335 333 332 334 332 333 333 332 333 334 333 333 335 334 333 333 334 334 335 334 335 335 334 334 335 336 336 334 333 333 333 334 333 332 330 327 327 327 328 329 329 322 323 323 319 316 317 322 324 326 327 329 331 331 330
333 336 335 336 336 335 335 336 337 336 335 334 332 336 334 334 333 331 331 333 334 334 334 333 335 336 338 338 336 335 335 336 335 336 335 333 332 332 332 332 329 329 329 327 328 327 330 330 326 321 316 317 318 318 315 318 321 324 329 329 331 329
329 331 333 332 333 335 335 334 334 334 334 333 332 331 332 330 332 333 332 331 332 333 333 333 334 336 338 337 336 337 336 336 335 335 334 333 331 331 330 330 331 329 329 328 327 328 329 330 328 328 322 317 315 314 315 318 320 321 327 327 329 329
327 329 329 329 330 332 332 333 331 330 328 326 325 326 327 327 329 331 331 332 334 333 333 332 334 335 336 335 336 337 336 336 336 334 331 329 328 328 328 331 328 329 327 330 328 327 327 330 330 329 327 324 323 317 316 319 319 314 325 326 325 329
325 326 327 327 329 330 330 331 331 332 332 329 327 327 330 331 330 330 333 333 335 336 338 335 333 334 335 336 336 335 335 334 333 331 330 331 330 330 330 329 330 330 330 329 328 325 325 327 329 328 328 327 327 325 326 321 317 318 316 320 324 325
323 324 325 326 326 328 328 329 329 330 330 331 330 329 329 328 328 329 329 331 333 334 335 335 335 334 335 335 335 334 334 333 335 332 330 331 331 331 331 330 331 330 330 330 328 326 325 326 325 324 327 326 325 326 326 325 324 320 317 316 319 325
322 323 325 326 326 327 328 327 327 327 326 328 330 331 332 332 328 328 327 329 331 333 334 334 335 335 335 335 336 334 333 333 331 331 332 331 332 332 330 329 328 328 327 328 328 328 327 327 326 325 323 323 325 323 324 322 324 323 318 315 315 320
321 321 323 324 325 325 326 326 325 325 325 325 326 327 328 328 329 329 328 329 330 331 332 332 334 334 334 335 335 334 333 332 331 332 332 332 331 330 330 329 329 328 328 328 330 329 328 327 326 327 326 324 322 322 322 321 320 321 322 320 316 318
320 320 321 322 323 323 324 324 323 324 324 324 325 324 323 323 326 326 327 329 330 331 333 333 332 333 333 334 334 333 332 331 331 331 331 331 330 330 329 330 330 329 328 328 327 328 327 327 327 327 326 325 323 322 321 319 320 322 321 319 319 319
317 318 319 320 321 321 321 322 323 323 323 323 323 323 322 322 324 324 325 325 327 328 329 330 330 329 330 331 332 332 332 332 332 330 330 330 330 330 329 330 330 330 329 328 328 328 329 328 327 326 327 326 325 325 324 323 323 324 322 321 320 319
314 315 316 318 319 320 320 320 321 320 320 321 320 322 323 323 323 322 322 323 324 325 327 328 328 329 330 332 332 332 332 329 330 331 331 329 328 328 328 329 329 329 329 328 329 329 328 328 328 326 326 327 326 326 325 326 326 325 324 323 322 319
313 314 315 315 317 318 318 319 319 318 319 319 320 321 322 321 320 320 321 321 323 324 325 326 328 329 330 332 332 332 331 330 330 331 330 330 329 329 330 330 328 329 329 329 329 328 328 328 328 328 327 326 325 326 326 328 327 326 324 322 321 320
312 313 313 314 315 315 316 317 316 317 318 318 319 320 320 320 319 318 319 321 322 323 323 324 326 329 330 330 331 331 331 330 331 330 330 329 329 329 329 329 329 328 328 329 328 327 327 327 327 327 327 326 326 326 326 327 328 326 326 325 324 323
312 312 312 314 313 313 314 314 315 316 316 318 319 319 319 319 319 319 319 319 319 320 321 322 325 326 327 329 330 330 331 330 330 330 330 330 329 329 329 327 327 327 327 329 329 328 328 327 327 328 327 327 326 325 325 326 327 328 327 327 326 326
311 311 312 313 312 312 313 313 314 315 315 316 317 316 317 317 318 319 318 317 317 318 320 321 322 325 325 327 329 329 329 330 329 329 329 329 328 328 329 328 327 327 326 328 327 326 327 328 328 328 328 327 325 325 326 327 327 328 328 326 326 326
Wind_Speed
7 7 7 7 6 6 8 11 9 10 11 10 10 10 9 10 9 8 7 8 6 3 3 4 5 3 7 2 3 2 6 5 4 3 2 1 3 3 4 4 4 4 3 3 2 4 6 8 8 9 10 9 9 5 4 2 6 7 6 6 5 5
5 7 7 6 5 5 6 8 6 5 4 6 7 8 6 3 5 3 7 5 3 2 2 2 2 7 5 4 4 5 5 5 5 4 2 3 3 4 4 5 5 4 4 3 3 2 4 6 8 9 10 11 5 2 3 5 5 7 7 6 5 7
6 6 7 6 6 6 6 5 5 5 5 6 6 4 4 3 2 2 2 3 2 2 2 1 0 4 4 7 5 8 5 5 4 3 3 4 4 5 6 5 5 5 4 4 2 2 3 4 4 8 9 7 5 4 3 6 6 7 7 6 5 9
5 5 6 6 6 6 5 5 5 5 5 5 4 3 3 3 3 4 3 2 1 1 2 1 2 3 3 5 5 7 7 6 6 4 4 3 4 5 6 6 6 6 3 2 3 3 3 5 5 4 5 6 5 2 4 4 6 7 6 6 6 12
5 5 5 5 5 5 4 4 4 3 4 4 5 2 3 3 2 4 3 0 1 2 1 1 1 1 1 4 3 3 2 2 2 2 4 2 2 3 4 3 3 3 3 3 3 5 4 5 5 5 5 5 5 3 6 5 6 6 6 6 6 12
5 5 5 5 5 5 5 3 2 4 5 5 4 2 1 3 1 3 3 2 1 1 2 1 1 0 1 3 3 2 2 2 2 3 3 4 3 4 4 4 4 4 4 4 5 5 5 5 6 6 5 5 5 5 6 6 6 6 6 6 7 13
6 5 5 4 5 5 4 3 2 3 4 4 3 2 1 2 1 1 3 2 2 1 1 1 1 0 1 2 3 1 2 1 2 3 3 5 5 5 5 5 5 5 5 5 6 6 6 7 7 6 5 6 5 7 6 6 6 7 6 6 7 15
5 5 4 5 6 5 4 4 2 1 3 3 4 3 2 1 2 0 3 2 2 2 3 2 1 1 0 2 2 2 1 1 4 4 2 2 4 5 5 5 5 5 5 5 5 5 6 7 8 6 4 7 4 5 6 5 6 6 6 6 6 10
6 6 5 6 5 5 5 4 2 0 1 4 5 4 4 4 4 4 2 2 3 3 4 4 3 3 3 3 3 3 3 3 2 4 3 3 2 3 3 6 6 6 5 5 4 2 3 4 4 3 4 4 5 4 6 6 6 6 6 6 5 8
5 5 5 4 5 5 5 5 4 2 4 2 5 4 4 4 4 3 3 3 2 2 3 4 4 3 4 3 3 3 2 3 3 4 4 5 4 3 3 3 3 4 5 2 3 3 2 1 7 7 3 3 2 4 7 7 6 6 6 5 5 6
5 6 4 4 4 4 5 5 4 3 2 1 3 4 4 2 1 1 4 4 4 3 3 3 3 3 2 2 2 3 3 2 3 4 3 4 2 2 3 4 2 2 2 3 2 3 0 4 5 9 4 4 3 3 5 7 6 6 6 6 5 4
6 6 5 5 4 4 3 4 7 5 4 3 2 4 4 3 3 3 3 3 3 4 3 3 3 2 2 2 3 3 3 4 4 4 4 4 3 2 2 3 3 2 0 3 1 1 0 1 6 8 6 4 4 4 2 8 7 7 6 5 5 5
3 3 6 5 4 1 5 5 6 6 5 3 2 2 3 5 5 5 4 4 3 4 4 4 4 4 3 4 4 5 5 5 5 3 3 4 5 3 2 1 1 2 1 0 3 3 4 4 6 8 7 4 5 4 4 4 8 7 6 6 6 5
3 6 5 4 3 1 3 5 5 5 5 4 4 4 4 4 5 4 3 3 3 3 4 5 5 4 5 4 5 5 5 5 4 3 3 3 4 3 3 1 0 1 1 2 4 4 4 5 6 7 6 3 5 5 5 4 7 8 7 6 6 6
3 5 5 5 4 2 2 4 5 5 4 5 4 4 3 0 0 2 2 3 4 4 4 4 3 4 4 4 5 4 4 4 3 3 4 4 3 3 3 3 3 4 2 1 4 4 4 6 6 7 5 1 4 3 3 5 3 7 8 7 5 6
4 3 5 3 3 3 1 3 4 2 3 3 3 1 1 0 1 3 4 5 5 5 5 5 5 5 5 5 5 5 5 4 4 4 5 4 3 4 3 3 4 4 4 4 3 5 5 5 6 7 3 1 2 3 2 2 1 6 4 3 4 5
3 5 3 2 1 1 2 1 4 2 2 2 3 2 1 0 2 4 2 3 2 4 4 4 4 5 5 5 5 5 5 5 5 6 5 5 4 3 3 3 4 3 4 5 5 4 4 3 4 5 3 1 1 3 2 1 2 4 5 5 2 3
3 3 2 1 2 0 0 1 1 5 2 0 0 0 1 0 4 5 4 5 3 3 3 3 4 5 5 5 5 5 4 5 5 5 4 4 4 3 3 4 4 3 4 4 5 5 5 5 3 4 2 2 2 1 2 1 2 2 4 4 4 3
2 3 3 2 3 1 1 2 3 5 2 1 1 1 1 1 4 5 6 4 3 2 3 4 5 5 5 5 5 5 5 4 4 4 4 4 4 4 4 3 4 4 3 4 5 5 5 4 4 2 2 2 1 1 1 3 1 2 4 3 2 3
3 3 0 1 2 2 3 5 3 1 4 5 5 5 2 7 7 5 4 4 4 3 3 4 4 4 4 5 5 5 5 3 3 4 5 5 6 5 6 5 5 4 3 3 4 4 2 1 1 0 1 2 2 1 0 3 1 1 1 2 2 5
6 6 2 3 2 2 1 0 1 5 4 0 5 6 6 8 7 3 5 5 5 5 4 3 3 3 4 4 4 4 4 5 4 5 6 7 6 6 5 4 3 3 4 3 4 3 3 2 2 1 1 1 2 1 4 0 3 2 2 2 2 4
3 3 2 1 2 2 1 1 1 2 3 6 4 5 5 5 7 9 11 8 3 4 3 4 3 4 5 5 5 5 5 6 6 6 6 6 5 5 4 4 4 3 3 5 4 4 3 4 3 5 4 2 2 2 2 4 2 2 4 4 5 5
3 3 3 3 3 1 0 1 2 2 1 1 7 7 4 5 4 6 10 9 9 9 2 4 5 6 6 6 7 7 7 7 7 7 6 5 5 5 5 5 5 6 4 3 4 2 5 7 6 3 1 2 3 1 2 4 4 4 5 4 6 9
6 5 5 5 3 2 1 2 1 3 2 1 1 3 5 8 10 10 9 9 10 8 8 7 5 5 6 8 9 9 8 7 7 7 7 6 4 6 5 6 5 5 4 6 4 6 6 8 6 5 4 7 2 2 4 8 7 4 5 6 6 7
5 5 5 6 7 4 4 4 3 2 1 1 1 1 0 2 3 5 6 8 8 8 9 8 10 9 7 5 6 8 7 7 6 6 5 4 3 4 5 6 6 7 8 8 8 6 6 7 9 9 6 2 1 3 7 1 5 5 4 5 7 6
6 6 7 8 8 6 5 5 5 5 4 3 3 3 2 1 3 4 4 3 4 11 13 10 9 9 10 8 10 8 6 6 6 4 1 1 4 6 8 7 3 6 6 9 9 8 8 6 9 9 7 6 1 3 4 4 5 5 3 3 2 4
6 6 6 7 9 7 7 6 5 4 3 2 3 1 1 1 1 3 4 5 5 5 5 6 10 11 10 9 8 3 3 2 1 3 1 7 7 8 7 6 6 9 10 10 9 9 10 8 6 8 9 9 3 4 4 2 6 3 4 2 4 6
5 6 6 7 8 8 8 8 8 8 6 6 4 4 3 3 1 2 4 5 5 5 4 3 2 2 3 3 3 4 2 2 3 4 5 7 8 8 5 5 6 8 9 9 9 8 8 8 8 6 8 9 8 3 2 7 1 3 5 6 5 2
8 7 7 7 7 7 7 7 7 7 7 6 7 7 7 5 4 3 3 5 4 4 4 4 3 3 3 4 5 4 2 3 1 2 5 5 5 6 8 9 8 8 6 5 5 8 8 8 8 10 6 7 7 6 5 3 2 6 2 4 3 7
7 6 6 8 8 8 8 7 7 8 9 8 7 7 7 7 7 6 5 5 5 5 5 4 4 4 5 5 5 3 1 1 2 5 4 4 5 3 4 8 10 8 8 9 7 8 9 8 8 8 8 8 7 5 5 5 4 6 2 3 4 7
5 5 6 7 8 9 8 8 7 8 9 10 9 8 8 8 7 9 9 8 8 7 6 5 5 5 4 5 5 3 2 3 3 7 6 3 4 4 6 7 7 8 9 9 8 8 8 8 7 8 9 7 9 9 9 10 9 6 5 4 3 4
4 5 6 7 7 7 8 9 10 10 10 9 9 8 8 6 7 8 9 8 7 7 6 5 4 4 5 4 3 3 3 1 3 4 5 6 7 7 4 6 5 6 6 8 8 8 9 10 8 6 8 7 8 9 9 9 7 8 8 6 7 5
5 5 4 4 6 8 8 8 9 10 10 9 10 10 9 9 8 8 7 8 8 8 7 7 6 7 6 6 5 6 5 5 5 5 4 3 3 3 2 5 6 8 9 8 9 9 9 10 9 9 10 8 8 8 9 8 7 7 7 5 6 5
5 4 3 4 5 6 7 8 9 8 7 8 9 9 9 10 10 8 7 9 9 9 9 9 9 8 7 6 6 6 4 4 4 5 5 5 5 4 5 6 6 7 8 6 6 10 10 10 10 10 6 7 8 8 8 7 7 7 7 7 7 9
5 5 4 4 4 6 6 6 8 8 8 8 7 6 6 8 9 10 9 9 9 9 9 10 10 9 9 7 7 6 5 5 5 4 5 5 5 5 5 6 5 6 4 5 8 10 10 10 9 9 9 9 9 9 7 7 7 8 8 8 8 7
4 4 4 4 4 5 5 5 5 8 7 7 7 7 7 7 8 8 8 9 9 9 8 9 9 10 10 10 9 7 6 6 5 5 6 6 6 6 6 7 8 7 7 6 9 11 10 8 9 9 9 8 7 7 7 8 8 8 9 9 9 8
7 6 6 3 4 4 5 5 6 6 8 8 8 8 7 8 8 8 8 9 8 8 8 8 9 10 11 12 10 9 8 7 7 6 6 6 6 7 7 7 7 7 9 8 5 6 6 8 9 8 7 9 6 6 9 8 8 8 8 7 8 8
Wind_Direction
138 137 132 123 116 113 121 116 115 120 121 116 116 120 133 133 134 137 133 133 136 134 144 142 141 144 148 135 112 122 145 130 122 90 109 149 174 155 150 149 146 150 181 211 241 285 293 295 302 312 317 322 323 6 22 63 104 104 101 106 103 113
110 117 127 124 125 124 124 118 120 124 127 126 124 127 124 142 141 154 149 142 112 116 85 92 164 162 158 161 139 163 161 151 137 139 141 177 184 172 169 166 166 172 200 219 246 256 283 301 306 307 304 305 318 49 348 122 111 107 106 105 109 121
104 107 116 127 129 134 132 135 138 147 147 140 142 133 149 145 138 164 152 136 156 120 109 190 209 153 171 150 152 156 170 168 164 172 178 194 191 189 175 181 180 187 199 234 258 285 286 283 298 299 303 309 312 46 37 116 114 107 113 115 120 125
107 101 107 122 126 133 138 139 161 165 149 144 132 109 94 82 80 71 79 113 150 128 148 199 238 167 167 150 151 154 163 183 190 189 201 207 208 203 189 186 195 191 189 247 269 282 285 270 259 275 278 286 290 61 117 120 110 118 122 127 125 131
110 103 102 105 114 121 116 127 162 139 120 107 86 85 101 85 101 108 117 94 172 144 183 191 307 356 66 129 129 136 158 184 201 189 190 195 215 223 179 193 199 191 175 217 258 263 268 274 267 257 265 269 271 89 134 128 123 125 127 129 134 135
114 119 115 110 113 113 105 110 104 96 94 72 79 95 117 125 153 129 136 168 197 147 114 195 324 332 67 99 122 137 192 221 234 224 183 194 208 213 191 201 195 197 199 201 224 249 254 246 245 246 255 263 254 117 131 139 134 125 129 133 141 142
115 120 124 119 107 101 115 119 102 95 102 102 109 134 160 132 178 147 116 172 184 192 106 263 166 60 95 84 103 119 212 240 254 243 213 193 209 211 198 202 195 207 197 201 223 232 238 238 234 232 227 246 231 135 146 147 136 131 130 143 152 152
125 134 134 124 124 124 129 120 131 95 96 128 131 166 204 137 162 101 131 172 184 194 147 197 194 157 104 113 118 165 150 262 274 266 277 238 221 210 210 205 204 199 205 217 226 232 239 223 221 227 222 223 247 147 152 137 127 128 140 143 152 161
148 145 136 132 129 131 134 129 119 192 213 165 153 166 183 174 161 183 162 166 192 193 166 162 167 187 168 170 161 162 186 219 249 275 285 292 273 264 242 218 203 197 197 219 229 269 333 328 251 218 205 250 238 108 145 131 133 138 140 148 162 161
146 137 131 123 132 130 128 124 154 198 226 174 140 160 171 182 193 159 160 183 185 167 167 168 169 182 179 194 184 186 197 218 223 243 246 255 247 274 297 298 254 214 187 163 41 5 16 282 304 279 250 229 130 126 126 130 134 141 148 154 161 166
135 140 127 119 116 118 120 143 143 158 202 180 170 159 161 155 154 144 153 168 179 172 174 181 175 179 201 183 201 219 223 215 239 242 249 265 282 274 298 289 311 348 75 104 183 194 1 304 286 271 242 245 184 115 120 139 136 147 156 155 168 170
128 140 122 110 113 125 144 142 142 168 175 187 193 183 148 151 177 212 191 193 180 172 175 193 175 187 198 178 198 227 233 223 230 226 226 249 249 216 230 275 309 312 160 154 201 21 328 247 283 271 254 218 177 144 144 128 147 156 154 160 169 168
101 100 99 101 105 152 166 163 157 154 157 166 212 226 171 155 180 204 206 202 197 181 176 185 194 190 200 194 194 205 216 222 226 215 222 234 248 233 217 237 352 348 292 230 145 196 245 248 251 270 261 212 183 167 162 142 146 150 161 164 167 169
130 105 101 104 116 140 171 158 141 136 148 155 196 208 217 159 176 190 191 199 216 203 189 186 184 194 199 200 204 211 213 220 224 222 221 227 241 238 234 194 90 76 281 272 241 204 199 236 246 257 262 241 189 174 171 174 147 158 157 172 166 159
89 94 113 131 142 173 224 152 128 138 154 172 191 203 225 160 126 185 203 204 214 211 193 183 186 195 210 208 207 209 214 226 231 229 229 222 221 238 224 204 165 192 157 281 285 269 212 216 239 255 269 229 192 158 151 173 178 140 165 162 155 169
120 123 132 140 154 165 215 78 70 91 152 164 183 231 279 40 261 228 202 199 196 199 186 187 193 193 208 215 213 216 220 218 217 219 230 236 223 228 219 210 209 186 189 193 212 265 260 243 232 249 262 270 72 84 54 8 15 65 114 117 156 175
141 145 131 141 111 132 165 141 137 144 204 144 144 167 234 116 242 248 245 254 218 201 193 193 198 197 201 211 215 216 214 212 210 209 220 221 226 223 212 216 221 201 184 210 205 228 274 275 280 267 257 96 90 102 78 48 42 100 113 96 57 230
347 351 59 94 102 128 97 2 70 135 155 294 343 121 91 23 286 263 226 212 227 223 218 200 204 210 205 210 214 224 228 216 203 202 211 224 232 219 214 206 232 220 194 199 219 218 229 251 265 292 310 141 152 103 113 94 54 104 101 120 136 196
354 358 10 34 98 81 74 42 353 344 356 142 177 231 158 204 228 259 279 259 222 238 239 215 204 205 201 203 209 223 239 230 200 199 205 224 236 228 211 208 219 228 196 215 223 226 215 218 251 286 335 332 1 103 151 104 113 99 126 145 183 144
49 318 353 50 89 82 90 142 179 229 299 331 315 289 203 180 190 227 252 292 312 299 256 220 208 209 212 205 201 211 233 251 226 205 212 223 228 221 216 211 226 224 220 225 236 241 247 197 97 90 344 315 336 11 151 116 130 121 121 139 188 131
166 214 138 78 58 80 84 339 199 171 165 172 307 317 315 316 309 229 170 193 236 242 231 252 245 231 239 230 217 215 219 243 238 215 215 224 224 225 220 210 222 223 225 235 249 224 226 169 165 302 22 340 321 42 290 146 238 179 208 187 197 146
26 59 41 93 142 132 181 177 200 235 132 159 215 248 278 306 291 309 313 293 201 176 254 267 254 249 246 228 224 220 224 230 229 228 222 226 226 221 214 208 197 234 211 212 239 203 208 132 229 215 212 264 299 275 247 305 269 238 192 199 172 142
5 39 42 37 75 86 247 204 176 248 210 163 154 178 159 228 249 278 286 290 295 298 240 201 222 221 223 228 226 223 223 223 220 221 228 233 235 238 230 218 197 206 227 221 237 222 197 192 220 201 157 97 244 283 250 218 239 242 241 192 176 164
23 34 35 20 18 343 268 294 239 207 233 177 217 180 177 179 184 192 208 242 278 285 292 287 257 223 219 208 206 214 219 219 216 209 214 227 253 262 254 249 245 242 235 241 220 239 202 205 194 127 238 216 190 174 265 240 213 231 214 223 188 171
23 21 23 15 5 359 11 23 353 336 329 351 23 6 270 285 237 195 176 182 209 245 272 281 286 284 269 257 229 213 206 210 211 216 201 207 271 283 299 270 239 225 226 232 235 225 227 208 213 195 187 130 207 225 226 199 165 245 201 220 217 182
25 26 17 8 6 2 9 17 12 23 7 2 341 350 336 16 11 345 297 256 193 189 199 220 243 260 263 248 251 238 226 209 202 215 39 355 216 225 239 232 298 276 267 245 237 232 233 216 220 223 208 232 206 220 195 180 144 232 200 227 238 207
27 23 15 12 6 8 5 7 16 24 10 329 324 277 327 7 18 300 296 298 284 282 263 198 191 213 224 229 240 256 270 272 78 57 86 247 244 233 224 228 226 224 222 220 225 238 229 225 215 225 228 233 234 234 286 183 189 99 197 227 207 208
33 29 16 11 10 10 11 6 11 19 10 6 357 312 310 308 285 269 284 273 273 269 265 297 278 258 268 262 272 237 239 312 268 118 195 220 231 240 230 216 222 236 245 239 229 227 235 231 214 230 209 224 232 233 240 260 320 194 157 176 223 237
34 23 10 9 11 14 19 16 12 11 12 12 12 5 351 339 316 288 288 294 302 303 326 323 332 309 280 269 257 268 155 223 239 143 212 230 222 215 228 240 238 229 241 280 269 252 242 230 217 231 204 227 221 207 220 264 220 252 175 155 206 188
40 28 15 14 16 17 17 17 19 11 13 9 11 9 11 359 355 348 340 331 325 330 324 325 320 315 311 301 280 246 113 204 230 271 243 211 230 192 224 229 234 233 225 232 234 242 237 238 227 229 215 209 218 198 205 233 242 227 240 162 164 198
34 32 25 28 22 19 17 17 16 11 16 9 6 9 6 2 359 0 2 356 354 337 322 313 304 299 291 291 298 298 218 210 225 232 240 233 259 224 214 241 251 244 234 227 232 243 252 247 231 223 213 201 205 204 198 205 209 209 200 183 186 199
12 38 35 31 28 27 29 15 14 16 15 8 5 4 0 357 9 0 356 347 342 336 330 314 302 294 296 310 326 317 304 285 219 221 231 207 219 237 209 230 240 272 258 237 233 231 239 238 223 238 225 206 212 206 212 203 200 198 199 201 187 186
29 39 50 50 42 30 26 28 27 17 12 6 6 4 357 2 7 3 353 345 340 339 333 334 339 338 332 328 322 309 305 306 301 280 267 248 247 243 220 237 238 244 246 229 228 233 237 237 224 218 216 202 213 211 213 207 198 198 206 183 175 182
45 35 36 55 58 54 40 31 33 23 13 11 9 359 1 6 1 356 352 343 343 341 339 339 337 341 331 323 317 301 293 284 270 265 267 258 247 238 248 242 222 234 235 224 227 236 237 243 235 225 191 204 202 207 212 199 200 192 200 186 199 198
42 18 22 50 66 68 61 52 38 23 13 9 5 6 10 5 1 355 348 345 347 348 345 342 340 337 333 328 319 307 298 296 285 280 284 278 258 247 245 248 249 245 246 253 233 230 228 229 229 213 199 201 204 211 207 202 198 211 209 201 194 192
40 12 22 58 67 78 84 67 59 40 25 14 9 14 12 9 356 346 345 349 347 344 340 338 338 338 337 333 326 326 322 308 303 298 289 278 275 268 251 255 262 267 263 239 236 228 228 226 231 220 208 204 202 200 210 214 207 208 207 204 202 195
28 5 11 57 71 70 69 70 57 49 40 23 20 17 12 5 358 356 355 352 345 339 334 341 343 344 339 334 331 332 327 323 317 306 299 290 276 268 259 254 254 254 252 249 250 264 253 238 227 215 195 201 201 205 213 211 208 210 211 208 208 199